Terminal Aerodrome Forecast
Issued by NWS Milwaukee/Sullivan, WI

Home | Current Version | Previous Version | Text Only | Print | Product List | Glossary On
Versions: 1 2 3 4 5 6 7 8 9 10 11 12 13 14 15 16 17 18 19 20 21 22 23 24 25 26 27 28 29 30 31 32 33 34 35 36 37 38 39 40 41 42 43 44 45 46 47 48 49 50
000
FTUS43 KMKX 301120
TAFMSN
TAF
KMSN 301120Z 3012/3112 34005KT P6SM SCT030
     FM301900 27004KT P6SM BKN110
     FM302300 22004KT P6SM SCT120
     FM310500 21004KT P6SM BKN080
     FM310600 21005KT P6SM SCT080=

USA.gov is the U.S. government's official web portal to all federal, state and local government web resources and services.